Temperature
20 20 20 20 20 20 19 19 19 19 19 19 19 19 19 19 19 19 19 19 19 19 19 19 19 19 19 19 18 18 18 18 18 18 18 18 18 18 18 18 18 18 18
20 20 20 20 20 20 19 19 19 19 19 19 19 19 19 19 19 19 19 19 19 19 19 19 19 19 19 18 18 18 18 18 18 18 18 18 18 18 18 18 18 18 18
20 20 20 20 20 19 19 19 19 19 19 19 19 19 19 19 19 19 19 19 19 19 19 19 19 19 18 18 18 18 18 18 18 18 18 18 18 18 18 18 18 18 18
21 20 20 20 20 19 19 19 19 19 19 19 19 19 19 19 19 19 19 19 19 19 19 19 18 18 18 18 18 18 18 18 18 18 18 18 18 18 18 18 18 18 18
21 20 20 20 20 19 19 19 19 19 19 19 19 19 19 19 19 19 19 19 18 18 18 18 18 18 18 18 18 18 18 18 18 18 18 18 18 18 18 18 18 18 18
21 20 20 20 20 19 19 19 19 19 19 19 19 19 19 19 19 19 19 19 18 18 18 18 18 18 18 18 18 18 18 18 18 18 18 18 18 18 18 18 17 18 18
20 20 20 20 20 19 19 19 19 19 19 19 19 19 19 19 19 19 19 19 18 18 18 18 18 18 18 18 18 18 18 18 18 18 18 18 18 18 18 18 17 17 18
20 20 20 20 20 19 19 19 19 19 19 19 19 19 19 19 19 18 18 18 18 18 18 18 18 18 18 18 18 18 18 18 18 18 18 18 18 17 17 18 18 17 17
20 20 20 20 20 19 19 19 19 19 19 19 19 19 19 19 18 18 18 18 18 18 18 18 18 18 18 18 18 18 18 18 18 18 18 18 18 17 17 17 17 17 17
20 20 20 20 20 19 19 19 19 19 19 19 18 18 18 18 18 18 18 18 18 18 18 18 18 18 18 18 18 18 18 18 18 18 18 18 18 18 17 17 17 17 17
20 20 20 20 19 19 19 19 19 19 19 19 18 18 18 18 18 18 18 18 18 18 18 18 18 18 18 18 18 18 18 18 18 18 18 18 18 18 17 17 17 17 17
20 20 20 20 19 19 19 19 19 19 19 19 18 18 18 18 18 18 18 18 18 18 18 18 18 18 18 18 18 18 18 18 18 18 18 18 18 18 18 17 17 17 17
20 20 20 20 19 19 19 19 19 19 19 19 19 18 18 18 18 18 18 18 18 18 18 18 18 18 18 18 18 18 18 18 18 18 18 18 18 18 18 18 17 17 17
20 20 20 20 19 19 19 19 19 19 19 19 18 18 18 18 18 18 18 18 18 18 18 18 18 18 18 18 18 18 18 18 18 18 18 18 18 18 18 17 17 17 17
21 20 20 20 19 19 19 19 19 19 19 19 19 18 18 18 18 18 18 18 18 18 18 18 18 18 18 18 18 18 18 18 18 18 18 18 18 18 18 18 17 17 17
21 20 20 20 19 19 19 19 19 19 19 19 19 18 18 18 18 18 18 18 18 18 18 18 18 18 18 18 18 18 18 18 18 18 18 18 18 18 17 17 17 17 17
21 20 20 20 19 19 19 19 19 19 19 19 19 18 18 18 18 18 18 18 18 18 18 18 18 18 18 18 18 18 18 18 18 18 18 18 18 18 18 17 17 17 17
21 20 20 20 20 19 19 19 19 19 19 19 19 19 19 18 18 18 18 18 18 18 18 18 18 18 18 18 18 18 18 18 18 18 18 18 18 18 18 18 17 17 17
21 21 20 20 20 20 19 19 19 19 19 19 19 19 19 18 18 18 18 18 18 18 18 18 18 18 18 18 18 18 18 18 18 18 18 18 18 18 18 18 18 17 17
21 21 21 20 20 20 20 19 19 19 19 19 19 19 19 19 18 19 19 18 18 18 18 18 18 18 18 18 18 18 18 18 18 18 18 18 18 18 18 18 18 17 17
21 21 21 20 20 20 20 20 19 19 19 19 19 19 19 19 19 19 19 19 18 18 18 18 18 18 18 18 18 18 18 18 18 18 18 18 18 18 18 18 17 17 17
21 21 21 20 20 20 20 20 20 19 19 19 19 19 19 19 19 19 19 19 18 18 18 18 18 18 18 18 18 18 18 18 18 18 18 18 18 18 18 18 17 17 17
22 21 21 21 20 20 20 20 20 19 19 19 19 19 19 18 18 18 18 18 18 18 18 18 18 18 18 18 18 18 18 18 18 18 18 18 18 18 18 17 17 17 17
22 21 21 21 21 20 20 20 20 20 19 19 19 19 18 18 18 18 18 18 18 18 18 18 18 18 18 18 18 18 18 17 17 17 18 18 18 17 17 17 17 17 17
22 22 21 21 21 20 20 20 20 20 19 19 19 19 18 18 18 18 18 18 18 18 18 18 18 18 17 18 18 18 17 17 17 17 17 17 17 17 17 17 17 17 17
22 22 22 21 21 20 20 20 20 20 19 19 19 19 19 18 18 18 18 18 18 18 18 18 18 17 17 17 17 17 17 17 17 17 17 17 17 17 17 17 17 17 17
Wind_Speed
3 4 7 6 6 6 6 6 6 7 7 7 8 8 9 10 10 10 10 10 10 10 10 10 10 10 10 10 10 11 11 11 11 11 10 10 10 10 10 10 10 8 10
6 6 7 7 6 7 6 7 7 7 7 7 8 9 9 10 10 10 10 10 10 10 10 9 9 9 9 10 10 10 10 10 10 10 10 9 9 9 9 10 9 8 11
6 6 7 7 7 8 7 7 7 7 7 7 8 9 10 10 10 10 10 9 9 9 8 8 8 8 8 9 9 8 9 9 8 8 8 6 7 8 9 10 10 10 10
7 6 7 8 8 8 7 7 7 7 7 7 8 9 10 10 10 9 9 9 8 8 8 8 8 7 7 8 8 7 8 8 7 7 5 5 6 8 9 9 10 10 10
6 6 7 8 8 8 7 7 7 6 7 8 9 10 10 10 9 9 9 9 8 7 7 7 7 7 7 7 7 7 7 7 7 5 4 3 5 8 10 10 10 10 10
6 7 7 9 8 8 7 7 6 6 7 8 10 9 9 9 9 9 8 8 7 7 7 7 7 7 7 6 7 7 7 8 7 4 4 3 4 8 9 10 9 9 9
6 6 8 9 8 8 7 6 5 6 7 8 9 9 9 8 8 8 8 7 7 7 7 6 6 6 6 6 6 7 7 8 6 4 4 4 4 7 9 10 9 8 8
7 6 7 8 7 7 7 6 6 7 7 8 9 9 8 8 8 7 7 7 7 7 7 6 5 4 5 5 6 7 7 8 6 5 3 4 6 8 9 9 10 9 9
7 5 4 5 6 6 6 7 7 8 8 8 8 8 8 7 7 6 7 7 7 8 7 6 5 4 4 5 6 6 7 8 6 5 4 5 7 8 9 10 10 9 8
6 5 4 5 5 5 5 6 7 8 8 8 8 7 6 6 5 6 5 6 7 7 7 6 5 4 4 5 6 6 7 6 5 5 5 6 8 9 9 10 10 9 8
5 3 4 4 4 5 5 5 5 5 6 6 6 6 4 3 2 3 4 5 6 6 6 5 4 3 3 4 5 5 4 4 5 5 6 8 9 9 9 9 10 9 8
5 4 3 4 4 4 4 4 3 3 3 3 3 4 3 2 2 3 3 4 5 4 4 3 3 2 1 1 2 3 2 4 5 5 7 10 10 10 9 10 10 9 9
5 5 4 4 4 4 3 3 3 2 3 3 3 3 3 2 1 1 1 2 2 2 1 1 1 1 1 1 1 2 2 3 5 6 7 10 10 10 10 10 10 10 9
5 5 4 4 4 3 3 3 3 2 2 2 2 3 2 2 2 1 1 1 1 1 0 1 1 0 0 0 1 2 3 3 4 5 6 10 10 10 10 10 10 10 9
6 5 4 4 4 3 3 2 3 2 1 1 2 2 3 2 2 2 2 1 1 1 1 1 1 1 0 0 1 3 3 4 5 5 5 9 10 10 9 10 10 9 9
6 5 4 4 4 4 3 3 2 2 2 2 2 2 4 3 3 2 2 2 1 1 1 1 1 1 1 1 0 1 3 3 4 5 6 6 8 9 9 10 10 9 9
6 5 5 5 4 4 3 2 2 2 2 2 2 2 3 4 3 2 2 1 0 1 1 2 2 2 1 1 1 0 1 2 3 5 6 6 6 8 9 9 9 9 9
6 5 5 5 4 4 3 2 2 2 2 2 2 2 3 3 3 2 2 1 1 2 2 2 1 2 1 1 0 1 1 1 3 3 4 4 5 5 7 8 10 10 8
7 6 5 4 4 3 3 2 2 2 2 1 1 1 2 2 3 3 2 1 1 2 2 1 2 1 1 0 1 1 1 1 2 3 3 4 5 5 5 6 8 9 8
7 6 5 4 3 3 2 2 2 2 1 1 1 1 2 2 2 3 2 1 2 2 2 1 2 1 1 1 1 1 1 1 1 2 3 3 4 5 5 5 5 5 7
6 6 5 4 3 2 2 2 1 0 0 0 0 1 2 2 2 2 2 1 2 2 1 1 1 1 1 1 2 3 3 2 0 0 1 1 2 4 5 5 5 4 4
7 6 5 5 4 3 2 2 2 1 1 1 0 0 1 2 2 2 2 2 1 1 1 1 1 1 1 1 1 1 3 4 3 1 0 1 1 2 3 5 5 5 4
7 7 6 5 4 3 2 2 2 2 2 2 2 1 1 1 1 1 1 2 1 2 1 1 1 2 0 1 1 2 1 2 2 3 2 1 1 1 2 3 4 5 6
8 7 6 5 4 3 3 3 4 3 1 1 1 1 1 1 1 2 2 2 1 1 1 1 1 1 1 1 1 1 2 3 2 2 3 2 2 2 2 2 3 5 5
8 8 6 5 4 4 4 4 4 2 1 0 1 2 2 2 1 1 1 1 1 1 1 1 0 0 1 1 1 1 0 0 1 2 2 3 3 2 2 3 3 3 5
7 7 6 6 4 4 4 4 4 4 2 2 1 1 1 1 1 2 1 1 0 0 1 1 0 0 0 0 1 1 1 1 1 1 2 2 2 3 2 2 2 3 3
Wind_Direction
177 172 150 132 124 123 122 123 122 120 119 117 117 119 122 123 123 127 132 133 131 132 133 133 136 138 138 144 150 152 152 150 154 154 155 155 153 151 152 153 151 150 150
167 164 148 133 126 125 125 123 120 118 119 119 121 121 123 124 122 123 126 131 133 133 132 131 132 138 145 150 153 153 154 156 154 157 156 157 158 158 161 161 158 155 158
149 152 142 132 126 119 120 121 121 122 123 124 126 125 125 127 127 126 127 129 132 135 136 136 134 137 146 155 155 154 157 162 162 156 153 150 156 166 165 162 159 157 160
145 144 136 131 127 119 115 117 122 123 125 126 129 131 132 132 132 131 133 134 135 136 137 140 142 143 144 154 155 152 149 153 151 146 137 150 168 169 164 159 158 155 155
134 136 134 127 127 121 117 119 121 124 129 130 132 136 136 136 135 135 138 140 140 141 146 147 149 152 150 152 155 154 150 143 141 133 121 139 161 165 164 160 159 160 159
135 136 136 129 127 123 120 121 120 123 135 137 136 139 141 142 142 140 143 144 147 149 151 149 151 157 157 157 157 158 152 147 141 126 124 130 141 155 163 163 162 165 169
135 138 141 134 130 126 126 123 116 122 129 137 138 139 144 146 149 150 151 152 154 155 152 153 156 163 169 166 163 162 155 148 144 138 144 148 161 168 166 166 168 170 172
138 140 139 135 130 128 130 123 115 117 123 133 139 139 143 151 156 159 159 161 161 158 156 160 165 173 179 177 169 165 158 152 145 141 147 165 180 182 174 171 172 176 176
121 126 131 136 133 132 132 125 113 106 122 129 135 140 141 149 156 160 163 168 167 164 164 168 176 187 192 185 177 171 163 157 149 153 172 178 188 187 181 179 176 177 178
108 111 116 120 125 128 133 125 112 107 113 125 135 135 136 143 153 157 164 165 165 168 170 174 182 198 198 193 184 174 166 162 159 169 184 190 192 188 186 185 181 181 183
104 97 101 112 122 129 132 121 114 110 106 116 127 131 121 122 146 155 150 152 157 164 173 182 192 201 201 195 186 183 172 167 164 174 185 192 190 189 188 189 185 189 194
116 121 111 109 115 129 132 125 129 117 102 113 120 111 111 118 147 147 153 150 156 162 170 177 190 202 189 193 200 195 176 169 168 179 187 192 193 190 189 191 192 198 202
129 122 114 113 112 117 119 132 133 130 120 114 104 102 94 84 95 103 154 150 144 143 172 179 208 246 159 167 179 188 187 182 176 186 189 192 193 193 194 195 198 203 207
116 113 111 106 98 103 110 116 124 127 127 130 129 117 112 87 71 82 115 158 155 188 170 216 159 176 217 175 168 170 181 179 180 186 193 194 193 197 200 201 203 207 209
111 109 108 110 101 95 94 98 106 106 116 137 124 119 125 113 87 87 100 118 140 169 158 163 142 130 124 163 171 160 169 176 174 178 190 195 196 199 203 204 206 206 205
131 132 126 115 118 105 97 92 96 114 120 117 122 123 128 128 108 104 94 90 92 144 162 141 128 139 162 116 104 147 169 173 175 179 187 196 203 206 209 209 208 207 206
143 140 136 129 117 104 104 106 109 116 112 109 116 115 123 128 120 111 105 105 74 103 106 93 93 104 95 80 48 289 198 190 172 175 185 195 202 209 213 213 212 212 213
135 133 137 126 114 111 110 98 103 109 101 105 109 116 127 131 129 111 100 100 103 85 85 98 93 84 71 68 313 268 229 200 186 181 177 184 199 212 216 217 216 214 214
140 134 128 121 123 123 122 107 100 113 108 131 127 111 127 132 132 122 110 105 100 78 75 105 83 92 88 29 260 268 265 220 205 195 182 187 196 201 201 210 215 216 218
140 132 129 123 125 118 103 88 66 60 61 107 142 141 119 138 138 129 112 80 81 84 60 59 88 82 153 210 304 350 325 273 193 196 205 200 199 198 195 197 204 213 221
141 138 138 135 138 123 116 119 114 137 107 52 189 162 154 155 154 131 118 89 85 94 91 58 75 52 14 39 46 6 355 0 33 245 207 201 205 200 186 190 191 201 218
155 156 156 159 161 158 154 154 155 161 179 172 343 46 149 157 171 152 134 131 125 109 59 54 79 54 353 59 101 54 357 351 347 325 282 209 225 197 193 197 190 195 202
161 165 166 170 163 167 162 123 98 68 44 38 18 359 354 177 181 157 138 133 136 135 142 166 139 131 248 303 146 140 142 252 306 320 305 285 265 233 230 194 188 193 198
172 168 164 167 163 163 150 136 133 131 144 214 236 337 4 69 131 118 120 121 129 134 165 222 169 165 153 278 307 238 186 179 180 303 318 304 269 240 240 224 207 200 203
171 169 168 163 165 162 152 149 140 135 151 149 62 43 29 19 31 68 119 101 121 155 186 215 127 124 157 193 239 268 286 65 139 168 279 306 314 281 246 236 218 205 208
169 169 167 163 173 173 165 155 147 152 151 122 92 84 52 19 359 348 29 32 83 157 169 193 190 162 194 226 246 200 179 186 220 179 227 270 286 288 282 264 229 218 209
Height
1508 1506 1505 1503 1501 1500 1499 1499 1499 1499 1500 1500 1501 1502 1502 1503 1504 1505 1506 1507 1508 1509 1509 1510 1511 1512 1513 1514 1515 1516 1517 1519 1520 1521 1522 1524 1525 1526 1527 1528 1528 1529 1530
1507 1506 1505 1503 1501 1499 1499 1499 1499 1499 1499 1500 1500 1501 1502 1503 1504 1505 1506 1507 1508 1509 1510 1510 1511 1512 1513 1514 1515 1516 1517 1518 1520 1521 1522 1523 1524 1525 1526 1527 1527 1528 1529
1507 1506 1505 1503 1501 1500 1499 1499 1499 1499 1499 1499 1500 1501 1502 1503 1504 1505 1506 1507 1508 1509 1510 1510 1511 1512 1513 1514 1515 1516 1517 1518 1519 1520 1521 1522 1523 1524 1525 1525 1526 1526 1526
1508 1507 1505 1503 1502 1501 1500 1499 1499 1499 1498 1499 1499 1501 1502 1503 1504 1505 1506 1507 1508 1509 1510 1510 1511 1512 1513 1514 1515 1516 1516 1518 1519 1520 1520 1520 1520 1521 1523 1524 1525 1525 1525
1508 1507 1506 1504 1503 1502 1501 1500 1499 1498 1498 1498 1499 1501 1502 1503 1504 1505 1505 1506 1507 1508 1509 1510 1511 1512 1513 1514 1515 1516 1516 1517 1519 1519 1519 1518 1516 1518 1521 1524 1525 1526 1526
1509 1508 1507 1505 1504 1503 1501 1500 1499 1497 1497 1498 1499 1501 1502 1503 1504 1505 1506 1506 1507 1508 1509 1510 1511 1512 1513 1514 1515 1516 1517 1518 1519 1519 1519 1518 1517 1519 1521 1523 1525 1526 1527
1509 1508 1507 1506 1505 1503 1502 1501 1499 1496 1496 1497 1499 1501 1502 1503 1505 1505 1506 1506 1507 1508 1509 1511 1512 1512 1513 1514 1515 1516 1517 1517 1518 1519 1519 1519 1519 1520 1522 1523 1525 1526 1527
1510 1509 1508 1507 1505 1504 1503 1502 1500 1497 1496 1497 1499 1501 1503 1504 1505 1505 1505 1505 1506 1507 1509 1510 1512 1513 1513 1514 1515 1516 1516 1517 1518 1518 1519 1520 1521 1521 1522 1524 1525 1526 1527
1511 1510 1508 1507 1506 1505 1504 1503 1502 1499 1497 1498 1500 1502 1503 1504 1505 1505 1504 1504 1505 1506 1508 1510 1511 1512 1513 1514 1515 1516 1516 1517 1518 1518 1519 1520 1521 1522 1522 1524 1524 1525 1526
1512 1511 1509 1508 1507 1506 1506 1505 1504 1502 1500 1500 1502 1503 1504 1505 1505 1505 1504 1503 1504 1506 1509 1510 1511 1512 1513 1514 1515 1516 1516 1517 1517 1518 1519 1519 1520 1521 1522 1523 1524 1525 1525
1514 1512 1511 1509 1508 1508 1507 1507 1507 1506 1505 1504 1504 1505 1506 1506 1506 1506 1505 1505 1505 1507 1509 1511 1512 1513 1514 1514 1515 1515 1516 1516 1517 1518 1518 1519 1520 1521 1521 1522 1523 1524 1525
1515 1514 1513 1511 1510 1510 1509 1509 1509 1508 1508 1508 1508 1508 1507 1507 1506 1507 1507 1507 1508 1509 1511 1512 1512 1513 1514 1514 1515 1515 1516 1516 1516 1517 1517 1518 1519 1520 1521 1521 1522 1523 1524
1516 1516 1515 1514 1513 1512 1511 1511 1511 1511 1511 1510 1510 1510 1509 1508 1508 1508 1508 1509 1509 1511 1512 1513 1513 1514 1514 1515 1515 1515 1515 1515 1515 1516 1517 1518 1519 1519 1520 1521 1521 1522 1523
1518 1517 1517 1516 1515 1514 1514 1513 1513 1513 1512 1512 1512 1511 1511 1510 1510 1510 1510 1510 1511 1512 1513 1513 1514 1514 1515 1515 1515 1515 1515 1514 1514 1515 1516 1517 1518 1519 1519 1520 1520 1521 1521
1519 1518 1518 1517 1517 1516 1516 1515 1515 1514 1514 1514 1513 1513 1512 1512 1511 1511 1511 1512 1513 1513 1514 1514 1515 1515 1515 1515 1516 1516 1515 1515 1515 1515 1516 1517 1518 1518 1519 1519 1520 1520 1520
1520 1519 1519 1519 1518 1518 1518 1517 1516 1516 1516 1515 1515 1514 1514 1513 1513 1513 1513 1514 1514 1514 1515 1515 1515 1516 1516 1516 1516 1516 1516 1516 1516 1516 1517 1517 1517 1518 1518 1518 1519 1519 1519
1520 1520 1520 1520 1520 1519 1519 1519 1519 1518 1517 1517 1516 1516 1515 1515 1515 1515 1515 1515 1515 1515 1515 1516 1516 1516 1517 1517 1517 1516 1516 1516 1516 1516 1516 1517 1517 1517 1517 1517 1518 1518 1518
1521 1521 1521 1521 1521 1521 1521 1520 1520 1520 1519 1519 1518 1518 1517 1517 1517 1517 1516 1516 1516 1516 1516 1516 1517 1517 1517 1517 1517 1516 1517 1516 1516 1516 1516 1516 1516 1517 1517 1517 1517 1517 1516
1521 1521 1521 1521 1522 1522 1522 1521 1521 1521 1521 1520 1520 1519 1519 1519 1518 1518 1517 1517 1517 1517 1517 1517 1517 1517 1517 1517 1517 1517 1516 1516 1516 1516 1516 1516 1516 1516 1516 1516 1516 1516 1515
1522 1522 1522 1522 1522 1522 1522 1522 1522 1522 1522 1522 1521 1521 1520 1520 1520 1519 1519 1518 1518 1518 1518 1517 1518 1517 1517 1517 1517 1517 1516 1516 1516 1515 1515 1515 1515 1515 1515 1515 1515 1514 1514
1522 1522 1522 1522 1523 1523 1523 1522 1522 1522 1523 1522 1522 1522 1521 1521 1521 1520 1519 1519 1519 1518 1518 1518 1518 1518 1517 1517 1517 1517 1516 1516 1516 1515 1515 1515 1514 1514 1514 1513 1513 1513 1512
1521 1522 1522 1522 1522 1523 1523 1523 1523 1523 1523 1523 1523 1522 1522 1522 1521 1521 1520 1520 1519 1519 1519 1518 1518 1517 1517 1517 1517 1517 1516 1517 1516 1515 1515 1515 1514 1513 1513 1512 1512 1512 1511
1521 1522 1522 1523 1523 1523 1523 1523 1523 1523 1523 1523 1523 1522 1522 1522 1521 1521 1520 1520 1519 1519 1519 1518 1518 1517 1517 1517 1517 1517 1517 1516 1516 1515 1514 1514 1513 1513 1512 1511 1511 1510 1510
1521 1521 1522 1522 1523 1523 1523 1523 1523 1522 1522 1522 1522 1522 1522 1522 1522 1521 1520 1520 1519 1519 1518 1518 1518 1517 1517 1517 1517 1516 1516 1515 1515 1514 1513 1513 1512 1511 1510 1510 1509 1508 1508
1520 1521 1521 1522 1522 1523 1523 1523 1522 1522 1522 1522 1522 1522 1522 1522 1521 1521 1520 1520 1519 1519 1518 1518 1517 1517 1516 1516 1516 1515 1515 1514 1513 1513 1511 1511 1510 1510 1509 1508 1507 1506 1506
1520 1520 1520 1521 1521 1522 1522 1522 1522 1522 1522 1522 1522 1521 1521 1521 1520 1520 1519 1519 1518 1518 1517 1517 1517 1516 1516 1515 1515 1514 1514 1513 1512 1511 1510 1509 1508 1508 1507 1506 1505 1504 1504